Location: Cisewo
(53.3833°N, 14.9000°E)
Time: 02:36:06
(UTC+00:00)

BEESAT 3 - Pass Details

Date: 03 October 2021
Orbit: 481 x 510 km, 64.9° (Epoch: 16 October)

Event Time Altitude Azimuth Distance (km) Brightness Sun altitude
Rises 17:59:46 0° 315° (NW) 2,615 ? -13.9°
Reaches altitude 10° 18:02:11 10° 328° (NNW) 1,732 ? -14.2°
Maximum altitude 18:05:30 26° 27° (NNE) 1,031 ? -14.7°
Enters shadow 18:06:59 21° 63° (ENE) 1,205 ? -14.9°
